Location: Danville Conservation Area
(38.8674°N, 91.5143°W)
Time: 00:36:29
(UTC-06:00)

Envisat - Pass Details

Date: 01 December 2021
Orbit: 764 x 766 km, 98.2° (Epoch: 23 January)

Event Time Altitude Azimuth Distance (km) Brightness Sun altitude
Rises 04:45:53 0° 17° (NNE) 3,240 6.4 -26.7°
Reaches altitude 10° 04:48:15 10° 22° (NNE) 2,309 5.6 -26.2°
Maximum altitude 04:53:15 56° 100° (E) 912 3.6 -25.3°
Drops below altitude 10° 04:58:12 10° 178° (S) 2,292 5.6 -24.3°
Sets 05:00:32 0° 183° (S) 3,214 6.3 -23.9°
